Temp
25 25 25 25 26 26 26 26 26 26 26 27 27 27 27 26 26 26 26 25 25 26 27 27 27 27 27 27 27 27 27 27 27 26 26 26 26 26 25 25 25 25 26 26 25 25 25 25 25 25 25 24 24 24 24 23 23 24 24 24 24 24 24 23 23 22 22 22 22 22 21 21 21 20
25 25 25 25 26 26 26 26 26 26 26 27 27 27 27 26 26 26 26 26 26 26 26 26 26 27 27 27 27 27 27 26 26 26 26 26 26 25 25 25 25 25 25 25 25 25 25 25 25 25 25 24 24 24 23 23 23 23 23 23 24 23 23 23 23 22 22 22 22 22 22 21 21 21
25 25 25 25 26 26 26 26 26 26 26 26 27 26 26 26 26 25 25 25 26 26 26 26 26 26 27 27 27 27 27 27 26 26 26 26 26 25 25 26 26 26 26 25 25 25 25 25 25 25 24 24 24 24 24 23 23 23 23 23 23 23 23 23 23 23 23 23 23 23 22 22 22 21
25 25 25 25 26 26 26 26 26 26 26 26 26 26 26 26 26 26 25 24 25 26 26 26 26 26 26 27 27 27 27 27 26 26 26 26 26 26 26 26 26 26 26 25 25 25 25 25 24 24 24 24 24 24 23 23 23 23 23 23 23 23 23 24 24 24 24 23 23 23 23 22 22 22
25 25 25 25 26 26 25 25 26 26 26 26 26 25 25 26 25 26 25 24 24 25 26 26 26 26 26 26 26 26 26 26 26 26 26 26 26 26 26 26 26 26 26 25 25 25 25 24 24 24 24 24 23 23 23 23 23 23 23 23 23 24 24 24 24 24 24 24 24 24 23 23 23 23
25 25 25 25 25 25 25 25 25 25 26 26 25 25 25 25 25 25 25 25 24 25 25 26 26 26 26 26 26 26 26 26 26 26 26 27 26 26 26 26 26 26 25 25 25 25 25 24 24 24 23 23 23 23 23 23 23 23 24 24 24 24 24 24 24 24 24 24 24 24 24 23 23 23
25 25 25 25 25 25 25 25 25 25 25 25 25 25 25 25 26 25 25 25 25 25 25 25 25 26 26 26 26 26 25 25 25 26 26 26 26 26 26 26 26 25 25 25 25 24 24 24 23 23 23 23 23 23 23 23 24 24 24 24 24 24 24 24 24 24 24 24 24 24 24 23 23 23
25 25 25 25 25 25 25 25 25 25 25 25 25 25 25 25 25 25 25 25 25 24 24 25 25 25 25 26 26 26 25 25 25 26 26 26 26 26 26 25 25 25 25 25 24 24 24 23 23 23 23 22 22 23 23 23 23 23 23 23 23 23 23 23 23 23 23 23 23 23 23 23 23 23
24 25 25 25 25 25 25 25 25 25 25 25 25 25 25 25 25 25 25 25 25 24 24 25 25 25 25 26 26 25 25 25 26 26 26 26 25 25 25 25 25 25 25 24 24 23 23 23 23 23 22 22 23 23 23 23 23 23 23 23 23 23 23 23 23 22 23 23 23 22 22 23 23 23
24 25 25 25 25 25 25 25 25 25 25 25 25 25 25 25 25 25 25 25 25 25 25 25 25 25 25 25 25 25 25 25 25 25 25 25 25 25 25 25 25 25 24 24 24 23 23 24 23 22 22 23 23 23 23 23 23 23 23 22 22 22 22 22 22 22 22 22 22 22 22 22 22 22
24 24 25 25 25 25 25 25 25 25 25 25 25 25 25 25 25 25 25 25 25 25 25 25 25 25 25 25 25 25 25 25 25 25 24 25 25 24 24 24 25 25 24 24 23 23 23 23 23 22 23 23 23 23 23 23 22 22 22 22 22 22 21 21 21 21 21 21 21 21 21 21 21 22
24 24 24 24 25 25 25 25 25 25 25 25 25 25 25 25 25 25 25 25 25 25 25 25 25 25 25 25 25 25 25 25 25 25 24 24 24 24 24 24 25 24 24 24 23 23 23 23 22 22 23 22 22 22 22 22 22 21 21 21 21 21 21 21 21 21 21 20 20 20 20 21 21 21
24 24 24 24 25 25 25 25 25 25 25 25 25 25 25 25 25 25 25 25 25 25 24 24 25 25 25 25 25 25 25 25 25 24 24 24 24 24 24 24 24 24 24 23 23 23 23 22 22 22 23 22 22 22 22 21 21 21 21 21 21 21 21 21 20 20 20 20 20 20 20 20 20 20
24 25 25 25 25 25 25 25 25 25 25 25 25 25 25 25 25 24 24 25 25 24 24 24 25 24 24 25 25 25 25 25 25 24 24 24 24 24 24 24 24 24 23 23 23 23 22 22 22 22 22 21 21 21 21 20 20 20 20 20 20 20 20 20 20 20 20 20 20 20 20 20 20 20
24 25 25 25 25 25 25 25 25 25 25 25 25 25 25 25 24 24 24 24 24 24 24 24 24 24 24 25 25 25 25 25 25 24 24 24 24 23 23 23 23 24 23 23 23 23 22 22 22 22 21 21 21 20 20 20 20 20 20 20 20 20 20 20 20 20 21 21 21 21 20 20 20 19
24 24 24 25 25 25 26 26 25 25 25 25 25 25 25 25 25 24 24 24 24 24 24 24 24 24 24 25 25 25 25 25 25 24 24 24 23 23 23 23 23 23 23 23 23 23 22 22 22 21 20 20 20 20 19 19 20 20 20 20 20 19 20 20 20 21 21 21 20 20 20 20 20 19
24 24 24 24 25 25 26 26 25 25 25 25 25 25 25 25 25 25 25 24 24 24 24 24 24 25 25 25 25 26 26 25 25 24 24 24 23 23 23 23 23 23 23 23 23 23 22 22 22 21 20 20 20 20 19 19 19 20 19 19 19 20 20 20 20 20 20 20 19 19 19 19 19 19
24 24 24 24 24 25 26 25 25 25 25 25 25 25 25 25 25 25 25 25 25 25 25 24 25 25 25 25 26 26 26 25 25 24 24 23 23 23 23 24 24 23 22 22 23 22 22 22 22 21 20 19 20 19 19 19 19 19 19 19 19 20 20 20 20 20 20 19 19 19 18 18 19 19
25 25 24 24 25 25 25 25 26 25 25 25 25 25 25 25 26 26 26 26 26 26 26 25 25 26 26 26 26 26 26 25 25 25 24 23 23 23 23 24 24 23 22 22 22 22 22 22 21 21 20 19 19 19 19 19 19 19 19 19 19 19 20 20 20 19 19 19 19 18 18 18 18 18
25 25 24 24 25 25 25 26 26 26 25 25 25 25 25 25 26 26 26 26 26 26 26 26 26 26 26 26 26 26 26 25 25 25 23 23 23 22 22 23 23 23 22 22 22 22 22 21 21 20 20 19 19 19 18 19 18 18 18 19 19 19 19 19 19 19 19 19 18 18 18 18 18 17
24 25 25 25 25 25 25 26 26 25 25 25 25 25 25 25 25 26 26 26 26 26 26 26 26 27 27 27 26 26 25 25 25 24 23 23 23 22 21 22 23 23 22 22 22 22 22 22 21 21 20 19 19 18 18 18 18 18 19 19 19 19 19 19 19 19 19 19 18 18 18 18 18 17
24 24 24 24 24 25 25 25 26 25 25 24 24 24 24 24 25 26 26 26 26 26 26 26 26 26 26 26 26 26 26 25 25 24 23 23 23 22 21 22 22 22 22 22 22 22 22 21 21 21 20 19 19 18 18 18 18 18 19 19 19 19 19 18 18 18 18 18 18 18 18 17 17 16
24 24 24 24 24 25 25 25 25 25 25 24 24 24 24 24 24 26 26 26 26 26 26 26 26 26 26 26 26 26 25 25 25 24 24 24 23 22 22 22 22 21 22 22 22 22 21 21 21 21 20 19 18 18 18 18 18 18 19 19 19 18 18 18 18 17 18 18 18 18 17 16 15 15
24 24 24 24 24 25 25 25 25 25 25 24 24 24 24 24 25 26 26 25 26 26 26 26 26 26 26 26 25 25 25 25 25 25 25 25 24 22 22 22 21 21 22 22 22 22 21 21 21 20 20 20 19 18 18 18 18 18 19 19 18 18 17 17 17 17 17 17 17 17 17 15 14 15
24 24 24 24 24 25 25 25 25 25 25 24 24 24 24 25 25 26 25 25 26 25 25 26 26 26 25 25 25 25 25 24 24 24 24 25 24 23 22 22 22 22 22 22 22 21 21 21 20 20 20 20 19 18 18 18 18 18 18 18 18 18 18 17 17 16 16 16 16 16 16 15 15 15
24 24 24 25 25 25 25 25 25 25 25 24 24 24 25 25 25 25 25 25 25 25 25 25 25 25 25 25 25 24 24 24 24 24 24 24 24 23 23 22 22 22 22 22 21 21 21 21 20 20 20 20 19 18 18 18 18 18 18 17 18 18 18 17 17 16 15 15 15 15 15 15 15 15
25 25 25 25 25 25 25 25 25 25 25 24 24 25 25 25 25 25 25 25 24 24 24 24 25 25 25 24 24 24 24 24 24 24 24 24 24 24 23 23 22 22 22 21 21 21 22 21 21 20 20 20 19 17 17 18 18 18 18 17 18 18 18 18 17 16 15 15 14 14 14 14 15 15
25 25 25 25 26 26 26 26 26 25 25 24 24 25 25 25 25 24 24 24 24 23 24 24 24 24 24 24 24 24 24 24 24 23 23 23 23 23 23 23 22 22 21 22 22 22 22 21 21 20 20 20 19 18 17 18 18 18 18 18 18 18 17 17 17 17 16 15 14 14 14 14 14 14
26 26 26 26 26 26 26 26 26 25 25 25 25 25 25 24 24 24 24 24 23 23 23 23 23 24 24 24 24 24 24 23 23 23 23 23 23 23 23 22 22 22 22 22 22 22 21 21 21 21 20 20 19 19 18 18 18 18 18 18 18 17 17 17 17 17 17 16 15 15 14 14 13 13
26 26 26 26 26 26 26 25 25 25 25 25 25 25 24 24 24 24 24 24 23 22 22 23 23 23 24 24 24 23 23 23 22 22 22 22 22 22 22 22 21 22 22 21 21 21 21 21 21 21 20 19 19 19 18 18 18 18 18 18 18 17 17 16 17 17 16 16 16 15 15 14 13 13
26 25 25 25 25 25 25 25 25 25 25 25 24 24 24 24 24 24 24 24 23 23 22 22 23 23 23 23 23 23 22 22 22 22 21 21 22 21 21 21 21 21 21 20 20 20 20 20 20 20 20 19 19 18 18 18 18 18 18 17 17 17 17 16 16 16 16 16 16 15 15 15 14 14
25 25 24 24 24 24 24 24 24 24 24 24 24 24 24 24 24 24 24 24 23 22 22 22 22 23 22 22 22 22 22 22 22 21 21 21 21 21 21 21 21 20 20 20 20 20 20 20 20 20 20 20 19 18 18 18 18 18 18 18 17 17 16 16 16 16 16 16 16 16 15 15 15 15
25 24 23 22 22 23 23 23 23 23 23 23 24 24 24 24 24 24 24 24 23 23 22 22 22 22 22 22 22 22 21 21 22 21 21 21 21 21 21 21 20 20 19 19 19 19 19 19 20 20 19 19 19 18 18 18 18 18 18 18 18 17 16 16 16 16 16 16 16 16 15 15 15 14
23 22 22 22 22 22 22 22 22 23 23 23 23 24 24 24 24 24 24 24 24 24 23 22 22 21 21 21 21 21 21 21 21 21 21 21 21 21 21 20 20 19 19 19 19 19 19 20 20 19 18 18 18 18 18 18 18 18 18 17 17 17 16 16 16 16 16 16 16 16 16 16 15 15
22 22 21 21 21 21 21 22 22 22 22 22 23 23 23 24 24 24 25 25 25 24 24 22 21 21 21 21 21 21 21 21 21 20 20 20 21 21 20 20 19 19 19 19 19 19 19 20 19 19 18 17 17 17 18 18 18 18 18 17 17 17 17 16 16 16 16 16 16 16 16 16 16 16
22 22 22 21 22 22 21 22 22 22 22 22 22 23 23 23 24 24 25 25 25 25 25 23 22 21 21 21 20 20 20 20 20 20 20 20 20 20 20 19 19 19 19 19 19 19 19 20 19 19 17 16 16 17 18 19 19 18 18 17 17 17 16 16 15 15 15 15 15 15 16 16 16 16
22 22 22 22 22 22 22 22 22 22 22 22 22 22 23 23 24 25 25 25 25 24 24 23 21 21 20 19 19 19 19 19 20 20 20 20 19 19 19 19 18 18 19 19 19 19 19 19 19 19 17 16 16 17 18 19 19 19 18 18 17 17 16 16 15 15 15 15 15 15 15 16 16 16
22 22 22 22 22 22 22 23 23 22 22 22 22 22 22 23 24 24 24 24 24 23 23 22 21 20 19 18 18 18 18 18 19 19 19 19 19 19 19 19 18 19 19 19 19 19 19 19 19 19 18 16 17 18 18 18 19 19 18 18 18 17 16 15 15 15 15 15 15 15 15 16 16 15
22 23 22 22 22 22 23 23 23 22 22 22 22 22 22 22 23 23 23 23 23 22 22 21 20 19 18 18 18 18 18 18 19 19 19 19 19 19 19 19 19 19 19 19 19 19 19 19 19 19 19 18 18 18 18 19 19 19 19 18 18 17 16 16 16 15 15 15 15 15 15 15 15 15
22 22 23 22 22 23 23 23 23 22 22 22 22 22 22 22 22 22 22 22 22 21 20 19 18 18 18 18 18 18 18 18 19 19 19 19 19 19 19 20 20 20 19 18 18 18 18 19 19 19 20 20 20 19 19 19 19 19 19 18 18 17 17 16 16 15 15 15 15 15 15 15 15 14
21 22 22 22 22 23 23 23 22 23 23 22 22 22 22 22 22 22 22 22 21 20 19 18 18 18 18 18 18 18 18 18 19 19 19 19 19 20 20 20 20 20 19 18 18 18 19 19 19 19 19 20 19 19 18 17 18 18 19 19 18 18 17 16 16 15 15 15 15 15 15 15 14 14
22 22 22 22 22 22 22 22 22 23 23 23 22 21 21 21 21 22 22 22 21 20 19 19 19 18 18 18 18 18 18 19 19 19 19 19 20 20 20 20 20 20 19 19 19 19 20 19 19 19 19 19 19 18 17 17 17 18 19 19 18 18 17 16 16 16 15 15 15 15 15 15 14 14
22 22 22 22 22 21 22 22 22 23 23 22 21 21 21 20 20 21 22 21 20 19 19 19 19 19 18 18 18 18 19 19 20 19 19 20 20 20 20 20 20 20 20 20 20 20 20 20 19 19 19 19 18 17 17 17 18 18 18 18 18 17 17 16 16 16 15 15 15 15 15 15 14 14
22 22 22 21 21 21 21 22 22 23 23 22 21 21 20 20 20 20 21 21 20 19 19 19 19 19 18 18 18 18 19 19 19 19 19 20 20 20 20 20 20 20 20 20 20 20 20 20 20 19 19 18 18 18 17 18 18 18 17 17 17 17 17 17 16 16 16 16 15 15 14 14 14 14
22 21 20 20 19 20 20 21 22 22 22 21 21 20 20 20 19 20 21 21 21 20 19 18 19 19 18 18 18 19 19 19 19 19 20 20 20 20 21 20 20 20 20 20 20 20 20 20 19 19 18 18 18 18 18 18 17 17 17 17 17 17 17 16 16 16 16 16 16 15 14 14 14 13
Height
866 867 867 868 868 868 869 869 869 869 869 868 868 869 869 870 871 872 872 868 865 865 865 865 865 864 864 863 862 862 862 861 861 861 860 860 859 858 857 856 855 853 852 851 850 849 848 847 846 845 844 843 842 840 839 837 836 834 833 832 830 829 828 827 826 824 823 822 822 821 821 820 820 821
865 866 866 867 867 868 868 869 869 869 869 869 868 869 869 869 870 870 872 870 866 865 865 865 865 864 864 863 863 862 862 862 862 861 860 859 858 857 856 855 854 853 852 851 850 849 848 847 846 845 843 842 840 839 837 836 834 833 831 830 829 828 826 825 824 823 822 821 820 819 818 818 818 817
865 865 866 866 867 868 868 868 869 869 869 869 869 869 869 869 869 869 870 870 867 865 865 865 865 865 864 864 863 863 863 862 861 860 859 858 857 856 855 854 853 852 851 850 849 848 847 846 845 843 842 840 839 837 835 834 832 831 829 828 827 826 825 824 823 821 820 819 818 817 817 816 815 815
864 864 865 865 866 867 867 868 868 869 869 869 869 869 869 869 869 868 868 869 867 865 865 865 865 865 864 864 863 863 862 862 861 860 859 857 856 855 854 853 852 851 850 849 848 847 846 844 843 842 840 839 837 836 834 832 830 829 828 826 825 824 823 822 821 820 819 818 817 816 815 814 814 813
863 864 864 865 865 866 867 867 868 868 869 869 869 869 869 868 868 868 868 867 866 865 865 865 865 865 864 863 863 862 862 861 860 859 858 856 855 854 853 852 851 850 849 848 846 845 844 843 842 840 839 837 836 834 832 830 829 828 827 826 824 823 822 821 820 819 817 816 815 814 813 813 812 811
863 863 863 864 865 866 866 867 867 868 868 868 868 868 868 868 868 868 867 867 866 865 864 864 864 864 864 863 862 862 861 860 859 858 856 855 854 853 852 851 850 849 848 847 845 844 843 842 841 839 838 836 835 833 831 830 828 827 826 825 824 822 821 820 818 817 816 815 814 813 812 811 810 810
862 863 863 863 864 865 865 866 866 867 867 867 867 867 867 867 867 867 867 867 866 865 864 863 863 863 863 862 861 861 860 859 858 857 855 854 853 852 851 850 849 848 847 846 845 844 843 842 840 838 837 835 834 832 831 829 828 827 826 824 823 821 820 819 817 816 815 814 813 811 810 809 808 807
861 862 862 862 863 864 864 865 865 866 866 866 866 866 866 866 866 866 866 866 866 865 864 862 862 862 862 861 860 860 859 858 857 856 855 853 852 851 851 850 849 848 847 846 845 844 843 841 839 838 836 835 833 832 831 830 828 827 826 824 823 821 820 819 817 816 815 813 811 810 809 808 807 806
859 860 861 861 862 863 863 863 864 864 865 865 865 865 865 865 865 865 865 865 865 865 864 862 861 861 861 860 859 859 858 857 856 855 854 853 851 850 850 850 849 848 847 846 845 844 842 841 839 838 836 834 833 832 831 830 828 827 826 824 823 821 820 818 817 816 814 812 811 810 808 807 805 804
858 859 859 860 861 862 862 862 862 863 863 864 864 864 864 864 864 864 864 864 864 864 863 862 861 860 860 859 858 858 857 856 855 853 852 851 851 850 849 849 848 848 847 846 845 844 842 841 839 837 836 835 834 833 831 830 829 828 826 824 823 821 820 818 817 815 813 811 810 809 807 806 805 804
856 857 858 859 859 860 860 861 861 861 862 862 862 863 863 863 863 863 863 863 863 863 862 862 861 860 859 859 857 857 856 855 854 853 850 849 849 850 849 848 847 847 847 846 845 843 842 841 839 837 836 835 834 833 831 830 829 828 826 825 823 821 820 818 816 814 812 811 810 808 806 805 804 803
853 854 855 856 857 858 859 859 860 860 860 861 861 861 862 862 862 862 862 862 862 861 861 860 860 859 858 857 857 856 855 854 853 852 851 848 848 849 849 848 847 846 845 845 844 842 841 840 839 837 836 835 834 832 831 830 829 828 827 825 823 821 820 817 815 814 812 811 809 807 806 804 803 802
851 852 853 854 854 856 856 857 858 858 859 859 859 859 860 861 861 861 861 861 860 860 860 859 859 858 857 856 855 854 853 853 852 851 851 849 848 849 849 848 847 845 844 844 843 842 841 840 839 837 836 835 833 832 831 830 829 828 827 825 823 821 819 817 816 814 812 810 809 807 805 804 802 801
848 848 850 850 851 853 854 854 855 856 857 857 857 858 858 859 859 859 859 859 859 859 858 857 857 857 855 854 854 853 852 851 851 850 850 849 848 848 847 846 846 845 843 843 842 841 841 840 838 837 836 835 833 832 831 830 829 828 826 825 823 821 819 817 816 814 812 810 808 806 805 803 802 800
844 845 846 847 848 849 850 851 852 853 854 854 855 855 856 856 857 857 857 857 857 857 856 856 855 855 853 852 852 852 850 850 850 850 850 849 848 847 846 845 844 843 842 842 841 841 840 839 838 837 836 834 833 831 831 830 829 827 826 824 822 820 819 817 815 813 811 809 807 805 804 802 801 799
841 842 843 844 845 846 846 847 848 849 850 851 852 852 853 854 854 855 855 855 855 855 854 854 853 853 851 850 850 850 849 848 849 849 849 848 848 847 846 844 843 842 841 841 840 840 840 839 837 836 836 834 833 832 831 829 828 827 825 823 821 819 818 816 814 812 810 808 806 804 803 801 799 798
838 839 840 841 841 842 843 844 845 846 846 847 848 849 850 850 851 851 852 852 852 852 852 851 850 850 850 848 847 848 848 847 847 847 847 847 846 845 844 842 841 841 841 840 840 839 839 839 837 836 836 834 833 832 831 829 828 826 824 823 821 818 816 814 813 811 809 807 805 804 802 800 798 797
835 836 837 837 838 839 840 841 842 842 843 844 844 845 846 846 847 847 848 848 849 849 849 848 847 846 847 846 845 846 846 846 846 845 845 844 843 842 841 841 840 840 840 839 839 838 838 838 837 836 836 835 833 832 831 830 828 826 825 823 820 818 816 814 812 810 809 807 805 803 802 800 798 796
831 832 833 834 834 835 836 837 838 839 839 840 841 841 842 842 843 843 844 844 845 845 845 845 844 843 844 843 842 843 844 844 844 843 842 842 841 841 840 839 839 839 839 839 838 838 837 837 837 836 836 835 833 832 831 830 828 827 825 823 821 818 815 813 811 810 808 807 804 803 801 800 798 796
826 828 829 830 831 831 832 832 834 835 836 837 838 838 838 839 839 839 839 840 841 841 841 841 841 841 840 840 840 841 842 842 841 841 840 840 840 840 839 838 838 838 838 837 837 837 836 836 836 836 835 834 833 832 831 829 828 827 826 824 821 818 815 813 811 810 808 807 805 803 801 800 798 797
822 823 824 826 827 827 828 829 830 832 834 834 835 835 835 836 835 834 835 836 837 837 838 838 838 837 837 837 838 838 839 839 839 839 838 838 838 838 837 836 836 836 836 836 836 835 835 835 835 834 834 833 832 831 830 829 828 827 825 824 821 818 816 814 812 811 809 807 805 803 801 800 798 797
818 819 820 822 823 823 824 825 826 829 831 832 832 832 833 833 832 830 831 832 833 834 834 835 834 834 834 834 835 835 836 836 837 836 835 836 836 836 835 834 834 834 833 833 833 833 833 833 833 833 832 832 831 830 829 829 828 826 825 823 821 819 817 815 813 812 810 808 806 804 801 800 798 797
814 815 816 817 819 819 820 821 823 825 827 828 829 829 830 830 828 827 828 829 830 830 831 831 831 831 831 832 832 832 833 834 834 834 833 833 833 832 831 831 832 832 831 830 831 831 831 831 831 830 830 830 829 829 828 828 827 826 824 823 821 819 817 816 814 813 811 809 807 804 802 800 798 796
810 811 812 812 814 815 816 817 819 821 823 824 825 826 827 827 825 824 826 827 827 827 827 827 827 828 828 829 829 829 830 831 831 831 830 830 829 828 828 829 829 829 828 828 829 829 828 829 829 828 828 828 828 827 827 827 827 826 824 822 820 818 817 816 815 813 811 809 807 805 803 800 798 796
805 806 807 808 809 811 812 813 815 817 819 820 821 822 823 823 822 823 824 824 825 825 824 824 824 824 825 826 826 826 827 827 828 828 827 827 826 825 825 826 826 826 825 826 827 827 827 826 826 826 826 826 826 825 826 826 826 825 824 822 820 818 817 816 814 813 811 809 808 806 804 801 799 796
800 801 802 803 805 807 808 810 811 813 815 816 818 818 819 819 820 821 821 822 822 822 821 821 821 820 821 822 822 822 823 824 824 824 824 824 823 823 823 823 823 823 823 824 824 824 824 824 824 824 824 824 824 824 825 825 826 825 824 822 820 817 816 815 814 813 811 810 808 806 805 803 801 798
795 797 798 799 801 803 805 806 807 809 811 813 813 814 815 816 817 818 818 818 818 818 817 817 816 816 817 817 818 818 819 820 821 821 821 821 821 820 820 820 820 821 821 822 822 822 822 822 822 822 822 822 823 823 824 824 824 824 823 822 819 817 816 815 814 813 811 810 808 806 805 803 801 799
791 792 794 796 798 799 801 802 804 805 807 808 809 810 811 812 813 814 814 814 814 814 813 813 812 812 812 813 814 815 816 817 817 818 818 818 819 818 818 818 818 819 819 820 819 819 819 819 820 820 821 821 821 822 822 823 823 822 822 821 819 817 816 815 814 813 811 810 808 806 804 802 800 799
787 789 790 792 794 796 797 799 801 802 803 804 805 806 807 808 808 809 809 809 809 809 809 809 809 808 809 810 811 812 813 813 814 814 815 816 816 817 817 817 817 817 817 817 817 817 818 818 819 819 819 819 819 820 821 822 822 821 821 820 818 817 816 815 814 813 811 810 808 806 804 803 801 799
784 785 787 789 790 792 794 796 797 798 799 800 801 801 802 803 803 804 804 805 805 804 805 805 805 805 806 807 808 809 810 810 811 812 812 813 814 814 814 815 815 815 815 816 816 817 817 818 818 818 818 817 817 818 820 821 821 821 820 819 817 817 816 815 815 814 812 810 808 807 806 804 801 799
781 783 784 786 788 789 791 792 793 794 795 795 796 797 797 798 798 799 799 800 800 800 801 802 802 803 804 804 805 805 806 806 807 808 809 810 811 811 812 813 813 814 814 815 816 816 817 817 818 818 817 817 816 817 819 820 821 820 819 818 817 817 816 816 815 814 813 811 810 808 806 804 802 800
778 781 782 784 785 787 788 789 789 789 790 790 791 791 792 793 794 795 795 796 796 797 798 799 799 800 800 800 801 801 802 802 803 804 805 806 807 808 810 811 811 812 813 814 815 815 816 816 817 817 817 816 816 817 818 819 820 820 819 817 817 817 816 815 814 813 813 812 810 809 807 805 803 800
774 777 778 780 781 783 784 785 785 785 785 785 786 787 788 788 790 791 791 791 791 792 794 794 795 795 795 796 797 797 798 798 799 800 801 803 805 806 807 808 809 810 811 812 813 814 815 816 816 816 816 816 816 817 818 819 819 819 818 817 816 816 816 815 814 813 812 811 810 809 807 805 803 801
770 771 773 775 777 779 780 780 780 780 780 780 781 782 783 784 785 786 786 787 787 788 789 789 789 790 791 791 792 792 793 794 795 796 798 800 802 803 805 806 807 808 809 811 812 813 814 815 815 815 816 817 817 817 818 818 818 818 817 817 816 815 815 814 813 813 812 811 810 809 808 805 803 801
765 766 768 770 772 774 775 775 775 775 775 776 777 778 779 780 781 781 782 782 784 784 784 784 785 786 787 787 787 787 788 789 791 793 795 797 799 801 802 803 805 806 808 809 811 812 813 813 814 815 816 816 817 817 817 817 817 817 817 816 816 815 814 814 813 813 812 811 810 809 807 805 803 801
758 760 762 765 766 768 769 770 770 771 771 771 772 773 774 775 775 775 776 777 779 779 778 779 781 782 782 783 784 785 787 787 787 789 791 794 796 798 800 802 803 805 806 808 809 810 811 812 812 814 815 816 818 817 816 816 816 816 816 815 815 814 814 814 813 813 812 811 810 808 806 804 802 801
752 754 756 758 759 761 763 764 765 766 767 767 768 768 768 769 769 769 771 771 772 772 772 773 776 778 782 786 789 790 789 787 784 784 787 790 793 796 798 800 801 803 804 807 808 809 810 810 811 813 814 816 818 817 816 815 815 815 815 814 814 813 813 813 813 812 811 811 810 808 806 804 803 801
746 748 750 751 752 755 757 758 760 761 761 762 763 763 764 764 765 766 767 766 766 765 765 765 766 769 776 784 790 792 790 785 782 782 784 787 790 793 795 797 798 800 803 805 807 808 808 809 810 811 812 814 816 816 815 814 814 814 813 813 813 812 812 812 811 811 810 810 809 807 806 804 803 802
740 742 743 744 747 749 751 753 754 755 756 757 759 759 760 761 762 763 763 763 763 764 763 762 761 763 767 774 782 788 788 784 780 779 781 784 786 789 791 794 796 799 801 803 805 807 807 808 808 808 810 811 812 813 813 813 813 812 812 812 811 811 810 810 810 809 809 808 808 806 805 804 803 801
734 736 737 740 742 745 746 748 749 750 751 753 754 754 756 757 758 759 760 760 761 762 762 762 763 765 767 770 776 784 786 782 778 777 779 781 783 786 788 791 793 796 798 800 802 804 805 805 806 807 808 808 809 811 812 812 812 811 811 810 810 809 809 808 808 808 807 807 806 805 804 803 802 801
730 731 733 736 739 740 742 744 745 746 746 747 748 750 751 752 754 755 756 758 759 759 759 760 761 763 765 766 770 777 781 779 775 775 777 778 781 783 786 788 791 793 795 797 799 800 801 802 804 805 806 807 808 809 810 811 810 810 809 809 808 808 807 807 806 806 806 805 805 804 803 802 801 799
725 726 728 731 733 735 738 740 741 740 740 741 743 744 746 747 750 751 752 755 756 756 756 757 757 758 759 759 762 768 772 772 771 772 774 776 778 781 783 785 788 790 792 794 795 796 798 801 803 804 804 805 806 807 808 808 808 807 807 807 807 806 805 805 804 804 803 803 803 803 802 801 799 798
721 722 724 726 728 731 734 735 734 734 735 736 738 739 741 745 748 748 748 749 751 751 751 752 753 754 755 756 758 761 764 766 767 769 771 773 775 777 780 782 784 787 789 791 792 794 797 799 800 802 802 803 804 804 805 805 805 805 806 806 805 804 803 803 802 802 801 801 801 800 800 799 798 797
717 718 719 721 724 727 729 730 729 729 730 731 733 734 736 739 741 743 743 745 746 746 747 748 750 751 752 755 757 759 760 762 764 767 769 771 773 775 777 779 782 785 787 789 791 792 794 795 797 799 800 801 802 803 803 803 803 804 804 804 803 802 802 801 800 799 799 798 798 798 798 797 797 795
714 715 716 718 721 723 725 726 725 725 726 727 728 729 731 733 736 738 740 741 741 742 743 744 746 747 749 751 754 756 759 761 763 765 768 770 772 773 775 778 780 783 785 786 788 789 791 792 793 795 797 798 800 801 801 802 802 802 802 802 801 801 800 799 798 797 796 795 795 795 795 795 794 794
Wind_Speed
14 15 14 13 11 8 7 7 7 8 9 5 3 4 4 2 1 1 2 4 2 2 3 3 3 7 9 10 10 9 10 11 12 14 15 16 17 17 18 19 19 19 19 18 18 18 18 18 18 18 18 19 19 20 20 19 19 19 19 17 17 17 18 18 19 20 19 18 18 18 18 19 20 21
13 14 15 15 13 10 9 8 7 8 7 4 2 3 4 4 3 3 2 3 3 2 3 4 5 7 8 8 9 9 9 11 12 14 15 16 17 17 17 17 17 17 17 17 16 16 17 17 18 18 18 18 19 19 18 17 17 17 17 15 15 15 16 16 17 18 18 17 16 15 15 16 17 18
13 14 15 15 14 12 11 10 9 8 7 6 5 5 6 5 5 4 3 2 3 4 5 7 9 9 8 9 9 9 9 11 14 15 16 16 16 17 17 16 16 16 16 16 16 16 17 18 18 18 17 18 18 17 17 17 17 16 15 13 13 13 14 15 17 17 18 16 15 14 14 14 14 15
13 15 15 16 16 14 13 11 10 9 8 8 8 8 9 7 5 5 4 5 7 10 10 10 10 9 10 11 10 11 12 13 16 17 16 17 17 16 16 16 15 15 16 16 16 16 17 17 16 16 16 16 17 17 18 17 15 13 12 12 11 12 14 16 17 18 18 17 16 14 14 13 12 13
16 15 16 17 17 16 14 13 12 11 10 10 10 9 9 8 7 7 7 8 10 13 13 12 12 12 13 13 13 15 16 17 18 18 17 17 17 16 17 16 15 16 15 15 15 15 15 15 14 14 14 15 16 16 15 13 12 12 12 12 13 14 15 16 17 17 17 16 16 15 13 12 10 10
18 17 17 18 18 17 17 16 14 12 12 12 12 10 10 10 9 9 10 10 10 13 16 16 15 14 14 15 16 17 18 19 20 20 19 18 17 16 16 16 16 15 14 13 13 14 14 14 14 14 14 14 14 13 11 11 11 12 13 14 15 15 15 16 16 16 16 15 15 14 13 11 9 8
22 21 20 20 19 19 19 19 17 15 14 13 13 13 12 12 12 12 13 13 12 15 18 18 17 16 16 17 18 18 19 19 20 20 20 18 16 15 15 16 15 13 13 13 14 14 15 14 13 13 13 12 12 11 12 12 13 14 15 15 15 15 15 15 16 16 15 15 15 15 14 13 11 8
26 25 24 23 21 20 21 22 21 18 17 16 16 16 16 16 15 14 14 15 15 15 18 19 19 18 19 19 19 20 20 20 20 20 20 18 16 14 13 14 13 12 13 14 15 16 16 13 12 12 12 12 12 12 13 14 14 14 14 14 14 14 15 15 15 15 15 16 16 16 15 15 13 11
28 27 27 27 24 22 22 23 23 22 20 19 19 19 19 18 18 17 15 15 16 16 18 20 20 19 19 20 20 20 19 21 21 21 20 17 15 15 13 11 11 13 15 13 15 19 17 12 13 13 13 12 12 13 14 14 14 14 14 14 14 14 15 15 15 15 16 17 17 16 15 15 14 13
28 28 28 28 27 26 25 24 24 24 22 21 21 21 20 19 18 18 18 17 17 17 18 19 20 20 19 20 21 20 19 21 22 22 20 18 15 13 13 14 15 16 13 12 18 21 16 12 13 13 12 12 12 13 13 14 14 14 14 14 15 15 16 16 16 17 18 18 17 16 16 15 15 14
28 28 28 28 27 27 27 26 25 25 24 23 22 22 21 20 19 19 19 19 18 18 18 18 19 20 20 20 21 21 21 21 21 19 19 20 17 11 12 18 20 16 12 14 20 20 14 12 13 12 12 13 12 12 13 13 13 14 14 15 16 17 17 17 19 20 20 19 18 18 17 16 16 15
29 29 28 28 28 27 27 27 26 25 25 25 25 24 22 21 20 20 20 20 20 19 18 19 19 19 20 21 22 23 22 20 19 18 17 20 19 13 13 17 17 14 13 17 21 18 12 11 11 10 11 12 11 11 12 12 13 13 15 16 17 17 18 20 21 20 19 19 19 18 17 16 15 14
30 30 30 30 29 28 28 27 26 26 25 26 27 27 25 23 22 22 22 21 21 20 19 20 20 19 21 23 22 23 22 19 19 19 17 18 18 16 16 15 12 12 14 18 19 15 12 11 11 10 11 11 10 11 11 12 13 14 15 16 17 18 19 20 20 19 18 18 18 17 17 16 15 14
31 31 31 31 31 30 29 29 28 27 26 25 26 26 25 24 23 23 22 22 21 21 20 21 21 19 21 24 22 22 22 21 20 19 16 16 17 18 18 14 10 10 13 17 17 13 10 9 10 11 11 10 8 10 11 12 13 14 15 16 17 18 19 19 19 19 20 20 20 18 16 15 15 14
32 32 32 32 31 31 31 30 30 29 28 26 25 25 24 23 24 24 24 24 23 22 21 22 21 19 22 25 24 22 23 22 20 18 15 15 16 16 14 12 10 10 12 16 15 11 8 7 9 10 9 7 7 9 10 11 13 14 16 17 18 19 19 21 21 22 23 22 21 18 16 14 13 13
33 32 32 31 31 31 31 31 31 30 29 28 27 26 25 24 24 25 26 26 26 24 23 23 23 23 23 25 25 24 23 22 19 17 15 14 15 15 13 12 12 10 11 13 12 8 6 6 7 8 7 6 7 9 10 12 13 15 16 17 18 20 22 23 24 23 23 22 20 19 17 14 12 11
33 33 32 32 31 31 30 30 30 30 30 30 28 27 26 26 25 26 26 27 27 28 26 26 27 27 26 27 27 26 24 23 20 18 17 16 16 15 14 14 13 11 10 9 8 5 3 4 6 6 6 4 5 7 10 12 13 15 16 17 19 22 23 23 22 22 22 22 21 20 18 16 13 11
33 33 32 32 32 32 32 31 30 30 30 30 29 29 28 27 26 25 26 27 27 29 29 30 31 32 30 30 30 28 26 25 23 21 20 18 16 15 14 14 13 11 9 8 5 2 1 1 4 3 4 3 4 6 9 11 13 15 16 18 21 21 21 21 20 20 21 21 22 21 20 18 15 12
34 34 34 33 34 34 33 33 32 31 30 30 29 29 29 28 27 26 26 27 27 28 29 31 32 33 32 33 32 30 28 26 24 23 20 17 15 14 15 15 13 11 9 7 5 3 4 2 2 3 4 2 3 6 9 11 12 14 16 19 20 19 19 19 19 19 20 21 21 21 21 19 16 12
36 36 35 34 35 35 36 35 34 32 31 29 29 29 29 29 29 29 27 26 27 27 28 29 30 29 30 31 31 31 29 25 23 22 20 17 16 15 14 15 15 12 9 7 6 5 5 3 1 3 5 2 2 5 8 10 12 14 17 18 17 17 18 19 18 19 19 20 21 21 21 20 16 12
37 37 37 36 36 36 37 37 36 34 32 30 30 30 30 30 31 31 30 28 27 28 28 28 27 26 26 26 27 28 26 23 21 21 20 20 18 15 13 14 15 12 9 7 7 6 6 5 3 4 6 2 2 4 6 9 11 14 17 16 15 16 18 18 18 18 18 18 19 20 21 20 17 13
37 37 37 36 36 37 38 38 38 35 33 31 32 32 31 30 32 34 33 31 30 29 29 29 28 28 27 26 25 24 23 21 21 22 23 23 20 17 16 16 14 12 10 10 9 7 8 7 5 5 7 4 2 4 5 6 9 13 14 14 15 17 18 18 18 18 18 19 19 20 21 21 18 15
37 37 38 37 37 38 39 39 38 36 34 33 33 33 31 30 33 36 34 32 32 31 30 30 30 29 27 25 24 23 21 20 21 22 23 23 21 19 19 18 12 8 8 10 11 9 9 8 7 6 6 5 3 4 4 5 8 11 12 13 17 19 20 20 19 19 19 20 20 20 20 21 20 18
35 36 37 38 38 39 40 40 39 37 36 34 34 33 31 31 35 36 34 33 32 32 31 31 30 28 26 24 23 22 21 20 19 19 20 22 21 20 20 19 15 11 9 10 11 10 9 9 9 8 6 5 4 4 4 4 7 8 10 13 18 21 22 21 20 20 20 20 21 20 19 19 19 20
36 36 37 38 39 39 40 40 40 38 37 36 35 34 34 34 36 35 34 34 33 31 31 31 29 28 26 24 23 22 21 20 18 18 18 20 20 19 19 20 19 17 16 13 13 11 10 10 11 9 7 6 4 5 5 2 4 5 9 14 17 20 22 22 21 20 20 21 21 21 20 18 19 20
37 37 38 38 39 39 39 39 39 38 38 36 36 36 36 36 36 35 35 35 33 32 31 30 29 28 26 25 24 23 22 20 19 18 18 19 19 17 17 18 19 19 18 15 14 14 12 12 13 11 9 7 5 5 5 3 1 3 5 10 16 19 21 22 21 20 20 21 22 22 21 20 18 18
39 38 38 38 38 38 38 38 37 36 36 35 35 36 37 36 36 35 36 36 34 33 31 30 30 29 27 26 25 24 23 21 20 20 18 18 18 17 16 17 18 18 16 13 15 15 14 14 13 11 10 9 8 6 6 4 1 2 3 5 12 17 19 21 22 20 19 20 21 22 22 22 21 19
41 39 38 38 39 38 38 38 37 35 34 34 33 34 34 34 34 34 34 35 34 32 31 30 31 30 29 27 26 25 24 22 21 20 19 18 18 17 17 17 16 15 13 13 15 16 15 14 13 12 10 10 10 9 7 6 3 1 3 3 7 13 17 19 20 20 19 19 21 22 23 24 23 22
43 42 41 40 39 39 38 36 35 34 34 33 32 32 32 32 32 31 32 33 32 31 31 31 31 32 31 29 27 26 24 22 20 19 18 17 16 17 17 16 15 14 13 14 15 15 14 13 12 11 11 10 10 10 8 7 5 1 3 3 4 9 14 16 18 19 19 19 20 21 22 23 23 23
45 44 43 41 40 39 37 35 34 35 35 34 33 32 32 32 32 32 32 32 32 32 32 32 32 33 32 30 28 25 23 22 20 19 17 17 17 18 18 17 15 14 13 13 13 13 12 11 10 10 11 11 10 10 10 8 7 4 1 3 4 5 9 12 14 16 17 17 18 20 20 21 22 23
45 44 42 40 39 37 35 34 33 34 34 33 32 32 32 32 32 32 32 33 33 33 33 32 33 33 32 29 26 25 23 22 20 19 19 20 20 21 20 18 16 15 14 14 13 12 10 9 8 9 10 11 10 10 10 9 8 6 3 1 3 4 6 9 12 14 15 15 16 17 18 20 21 23
45 42 39 36 34 33 31 31 31 31 32 32 32 32 32 32 31 30 31 32 32 32 32 32 32 32 30 28 26 24 23 21 20 20 22 23 24 23 21 18 17 18 18 17 15 14 11 9 8 7 7 8 9 11 11 11 9 7 3 0 2 3 4 7 10 12 13 14 14 15 17 19 19 21
43 40 36 33 31 30 29 29 29 30 31 31 32 32 31 31 31 31 31 32 32 32 31 32 32 31 30 28 26 24 23 22 21 22 24 25 24 23 22 21 22 23 22 20 18 16 13 10 8 7 6 6 6 8 9 10 10 7 3 2 3 3 4 5 8 10 12 13 13 14 15 17 17 19
38 35 33 32 31 29 29 29 30 31 32 32 32 33 33 32 32 32 32 33 32 31 32 33 33 32 30 29 27 26 24 23 22 23 25 26 25 25 24 23 23 24 24 23 21 18 15 12 9 8 9 8 8 8 9 9 8 6 4 5 6 6 5 4 5 7 9 11 12 12 14 16 17 18
35 34 31 29 30 30 30 31 32 33 33 33 33 34 34 34 34 33 34 33 31 30 31 32 32 31 31 32 31 29 27 25 25 26 27 26 25 26 26 24 23 24 24 24 23 19 16 13 11 10 10 9 8 8 10 10 8 7 7 8 9 9 8 6 4 4 6 7 9 11 13 16 17 18
35 34 31 29 29 30 30 32 33 34 33 34 34 33 33 34 35 35 35 33 31 31 32 32 32 32 33 33 31 27 25 25 26 28 28 26 25 26 25 23 23 25 26 25 23 21 17 14 13 13 12 8 5 6 8 9 9 9 10 11 11 11 10 9 7 5 4 4 6 8 10 14 16 17
34 32 31 32 32 31 31 33 34 34 34 34 34 34 35 35 36 36 35 33 33 32 30 29 29 28 28 26 23 23 25 26 28 29 29 26 25 24 24 23 23 26 27 26 23 21 19 16 15 15 13 8 3 4 7 8 10 12 13 13 13 12 12 11 11 9 6 4 3 4 6 9 12 14
35 33 32 33 33 32 33 34 35 35 35 35 34 34 35 36 36 35 34 34 34 32 30 30 29 25 24 24 23 23 26 27 27 28 28 26 25 25 25 24 24 25 27 26 24 22 20 18 17 18 16 11 6 4 7 9 11 13 13 14 15 14 13 14 14 12 9 7 5 4 4 6 8 9
36 36 34 33 33 34 34 35 36 36 36 35 34 34 35 35 34 33 33 33 33 31 30 31 28 24 24 27 27 26 27 27 26 27 28 28 27 28 27 25 24 24 25 26 25 24 23 21 20 20 19 15 10 8 9 11 13 13 13 14 15 15 15 16 16 14 12 10 8 5 4 4 5 6
38 38 37 34 33 35 36 36 36 36 36 36 35 36 36 34 33 32 33 33 32 30 29 27 23 20 22 24 25 27 29 30 29 29 29 29 28 28 28 27 26 25 24 24 25 26 26 26 23 20 17 15 13 11 10 11 13 14 15 14 15 16 16 16 16 15 14 12 9 8 7 6 5 3
39 39 37 35 34 35 35 35 35 37 38 38 37 37 36 35 33 33 33 33 31 28 27 25 22 21 23 25 28 31 33 31 29 28 28 28 29 29 28 27 26 26 24 23 25 28 28 26 24 21 17 16 15 12 9 9 13 16 16 14 14 16 17 17 17 17 15 13 11 10 9 8 8 6
38 38 37 36 36 36 35 34 36 38 40 39 37 37 36 35 33 33 32 33 31 29 27 26 25 26 28 29 32 35 35 32 29 28 28 28 29 28 27 26 27 27 26 25 26 27 25 22 23 23 21 18 17 14 12 14 16 18 17 14 14 15 17 18 18 18 17 16 15 13 10 8 7 6
35 36 36 37 36 35 34 35 38 40 41 39 37 35 32 30 31 33 33 32 31 30 29 28 28 29 31 31 32 34 35 32 30 29 28 28 28 28 27 27 28 28 26 26 26 24 20 19 21 23 22 21 19 18 17 19 20 19 16 14 13 13 15 17 18 18 19 19 18 16 14 11 9 7
33 34 34 34 32 32 34 37 40 41 41 39 36 33 31 31 34 35 33 32 31 31 30 30 30 31 30 29 30 32 32 29 29 29 27 26 27 26 26 27 29 27 25 24 24 21 18 18 19 20 20 20 19 18 19 20 19 15 12 11 10 10 12 14 17 19 20 20 20 19 18 16 13 12
28 27 26 25 25 28 32 36 39 40 40 38 34 33 32 32 33 32 31 31 33 33 29 28 30 32 30 28 29 30 28 26 26 26 25 24 23 23 24 27 29 27 24 23 23 22 19 18 18 18 18 17 16 15 14 13 12 10 10 10 10 10 11 12 15 18 20 21 21 20 20 18 17 15
Wind_Direction
243 241 243 249 258 261 263 279 297 314 322 307 246 269 283 264 245 280 314 300 275 302 325 321 353 7 2 353 348 340 330 326 323 322 324 325 327 330 330 329 330 331 332 334 336 338 340 341 342 341 340 339 337 334 333 332 332 335 336 334 329 327 329 332 333 330 326 322 318 313 308 304 299 294
245 243 243 247 253 256 259 271 286 298 307 306 269 268 283 294 276 221 233 286 290 315 331 328 333 342 348 347 345 341 338 336 336 336 336 336 335 334 334 336 338 339 341 343 344 344 344 343 344 343 342 339 335 333 334 335 337 338 336 331 327 325 329 335 338 337 335 331 327 323 317 312 307 301
249 246 244 245 248 251 258 267 277 284 281 268 260 266 275 288 291 262 225 242 290 304 316 323 333 338 338 339 340 340 344 347 347 347 345 344 343 340 341 343 343 343 345 344 343 341 339 339 341 341 339 336 336 338 340 341 342 343 340 336 333 333 338 343 344 344 343 341 337 334 329 323 315 309
252 251 247 245 245 249 258 264 271 276 270 254 251 265 274 272 281 283 249 236 277 300 311 319 333 343 338 337 342 344 347 351 350 349 348 347 345 345 346 345 344 344 343 340 341 342 341 341 342 342 339 338 339 340 343 347 351 354 354 353 352 352 352 349 346 344 345 345 344 342 338 333 324 316
249 252 251 249 247 248 254 260 267 270 266 257 255 263 267 261 267 281 270 260 279 300 312 318 325 332 333 334 341 344 344 347 348 347 348 349 348 348 347 344 343 343 342 345 350 350 347 347 347 345 342 339 340 344 351 360 5 5 6 5 3 360 355 350 347 344 343 342 340 336 334 333 327 318
246 249 252 252 251 251 252 255 261 267 266 260 259 262 264 265 269 276 277 272 275 292 304 312 316 322 327 328 334 339 339 340 341 342 346 350 348 347 345 342 341 344 351 360 360 353 350 349 346 342 341 343 349 359 9 14 13 12 11 9 5 1 356 353 351 348 345 342 338 333 328 325 322 312
246 247 250 251 252 253 255 254 255 261 264 260 260 262 266 271 275 276 276 273 272 283 296 304 309 314 318 320 326 331 331 333 335 337 344 347 343 341 340 339 342 352 3 4 359 356 356 351 345 347 355 4 11 17 20 19 18 17 14 10 5 1 358 355 353 351 348 347 345 339 332 325 318 308
249 249 250 252 253 255 256 256 255 257 259 261 262 264 268 272 276 276 274 274 276 280 288 296 302 307 311 315 321 324 325 328 330 333 340 342 338 335 335 338 347 357 359 358 2 7 7 5 9 18 23 26 25 23 22 21 19 15 10 6 2 358 357 355 353 351 351 350 347 342 336 330 323 314
251 252 252 253 254 255 257 258 257 257 259 262 264 266 270 273 275 277 275 277 281 281 283 291 299 303 307 311 316 319 321 323 326 330 336 337 334 331 334 343 350 350 351 2 12 13 15 25 32 34 35 32 29 24 20 16 11 5 2 0 360 360 359 357 356 354 354 352 349 346 343 340 335 327
252 253 254 254 255 255 258 259 258 257 259 263 266 268 271 274 276 277 277 279 282 281 283 288 294 299 304 308 311 314 317 319 321 326 330 333 336 332 333 341 345 349 359 11 11 11 19 34 35 36 37 33 27 20 12 6 2 0 1 2 2 2 360 358 358 356 355 353 351 350 349 346 343 338
253 254 254 256 256 256 258 261 261 260 259 263 267 269 272 275 277 277 277 280 280 279 282 284 288 294 299 302 305 307 311 313 316 323 326 327 333 337 334 338 343 355 10 8 3 9 23 35 36 40 39 32 25 15 7 3 2 3 3 3 1 0 359 356 354 353 352 350 349 348 346 345 342 339
255 255 256 257 257 257 258 261 263 263 263 265 267 269 271 274 276 275 276 279 279 277 279 282 285 289 292 295 299 302 306 309 314 322 322 319 325 332 332 336 344 357 5 360 360 11 29 39 42 43 39 33 23 15 10 7 8 7 4 3 0 357 355 352 350 349 348 348 348 348 347 345 342 339
256 257 258 258 258 258 259 261 264 266 267 268 268 270 271 273 274 274 275 277 276 274 275 278 281 283 286 290 294 297 302 306 310 317 317 314 318 322 325 335 352 1 358 355 0 16 34 42 47 42 37 36 22 13 13 12 12 11 6 3 360 356 353 350 349 349 348 349 348 347 347 347 345 340
254 256 258 260 260 261 261 262 264 265 267 269 269 270 271 273 274 273 273 273 272 271 271 274 277 278 280 285 289 292 299 304 306 310 314 313 315 319 325 335 351 358 354 350 359 19 38 48 52 41 36 37 22 15 19 17 14 10 4 1 358 356 354 351 350 348 346 345 343 339 337 338 340 339
253 255 257 259 260 260 261 262 263 264 266 267 268 268 268 269 272 272 271 271 271 269 268 270 272 271 274 283 288 290 295 301 303 306 310 309 310 314 319 322 328 342 348 344 351 17 44 56 51 41 42 42 24 23 26 20 13 6 1 360 357 356 355 353 351 348 346 345 344 342 338 331 328 330
252 253 255 258 259 260 261 261 262 263 265 266 267 268 268 268 270 270 269 269 269 268 268 269 271 270 273 281 286 287 292 298 300 304 305 302 301 301 298 297 303 321 334 333 341 8 46 61 47 45 59 50 27 28 26 15 8 2 360 359 358 358 357 355 354 351 349 349 349 351 352 344 331 320
250 251 253 255 257 260 261 261 261 262 264 267 267 268 269 269 269 269 268 268 268 268 267 267 269 273 274 277 282 287 291 294 296 298 297 297 297 292 287 289 296 306 318 320 329 351 34 54 41 54 79 61 25 24 19 9 3 359 359 0 1 1 1 360 359 356 353 352 353 355 359 360 350 331
250 251 252 253 256 260 261 261 261 261 262 265 267 268 269 270 270 268 267 268 268 269 267 265 268 274 275 275 281 287 288 290 294 295 294 294 293 288 287 290 292 297 303 304 308 302 227 30 30 67 105 77 18 17 16 8 1 359 2 4 4 5 6 5 4 1 358 356 355 356 1 6 3 350
249 251 252 253 256 259 261 262 262 261 262 263 264 266 268 270 272 270 268 267 268 270 271 270 271 274 276 277 280 283 285 288 292 293 292 290 287 286 288 287 285 288 290 287 292 269 224 246 19 106 134 112 21 21 19 9 3 3 7 8 8 10 12 11 9 6 2 359 356 355 359 6 9 3
247 250 250 251 254 257 260 262 262 262 261 261 261 263 265 268 271 272 270 268 269 271 275 277 277 278 279 279 279 280 281 283 286 288 287 284 280 277 278 278 278 282 280 271 277 269 237 244 283 154 158 138 26 25 18 9 7 9 10 13 16 18 18 17 14 11 6 2 358 356 358 5 12 11
246 248 249 250 252 254 258 262 263 262 260 258 259 260 262 265 268 271 271 269 269 271 274 277 279 280 280 280 279 278 276 275 278 279 276 276 273 263 256 262 269 272 267 258 264 258 234 237 253 202 188 195 343 5 13 11 11 13 15 20 25 25 24 24 21 17 14 9 4 1 1 6 14 17
244 247 248 249 250 252 256 261 262 261 258 256 256 257 258 260 264 268 271 271 270 270 271 273 275 276 277 277 276 275 271 268 269 271 273 276 271 253 244 249 257 263 263 256 253 240 223 228 240 216 199 205 280 331 358 9 12 16 24 34 37 34 32 32 31 28 25 21 16 10 7 9 15 20
242 245 247 248 248 251 255 259 261 260 258 256 256 256 255 255 260 267 270 271 272 272 272 273 275 275 276 276 274 273 269 263 263 269 275 276 266 251 246 246 244 251 261 251 238 224 217 222 223 209 199 203 235 279 316 359 14 23 39 51 49 42 37 36 36 35 32 29 26 20 13 11 14 17
241 243 245 246 248 250 253 256 259 259 257 256 257 256 252 252 260 268 270 270 272 273 274 276 276 276 277 276 273 270 266 261 262 268 273 274 267 255 247 244 238 240 253 246 230 222 218 219 213 205 208 213 215 239 269 333 14 33 54 59 52 46 40 35 33 34 34 33 32 28 22 15 13 12
240 242 243 246 248 249 251 254 256 257 256 256 256 255 253 256 264 268 269 270 272 273 273 274 274 273 274 271 267 264 261 260 263 266 268 272 270 256 244 242 241 247 257 248 229 223 222 217 209 201 207 217 213 223 245 299 17 47 58 53 49 47 41 34 30 30 31 32 33 34 31 24 15 10
239 241 243 246 249 251 252 255 256 257 257 256 255 256 258 261 265 266 266 268 269 269 269 269 268 266 265 262 259 258 257 258 261 264 266 269 267 257 248 247 248 255 261 247 228 229 230 220 210 201 202 210 210 221 238 249 53 77 67 49 45 46 42 35 29 26 27 30 31 34 36 35 29 20
241 243 244 246 249 252 254 257 258 259 258 256 256 258 259 260 262 262 262 263 264 264 264 262 259 258 256 254 252 252 254 258 261 261 261 260 259 255 254 254 253 256 258 243 230 234 233 222 212 206 209 209 200 204 224 229 199 98 97 58 45 44 42 37 31 26 26 28 29 31 33 34 35 33
242 244 245 247 250 252 255 258 260 261 260 258 258 260 260 259 259 257 257 258 258 257 255 253 252 252 251 249 249 252 257 260 258 254 252 252 252 252 252 251 247 242 239 235 234 235 231 221 209 204 211 210 202 202 212 216 208 91 84 82 51 42 40 38 33 28 26 27 27 29 29 29 30 30
242 244 246 248 251 253 255 257 258 259 260 260 261 261 259 256 254 252 253 255 253 250 248 247 247 249 250 250 252 255 257 254 248 244 244 244 243 241 239 236 232 229 232 236 236 229 220 214 208 204 207 208 206 207 206 204 206 175 61 69 68 46 36 37 36 30 27 26 25 27 28 29 29 27
243 245 246 247 249 252 253 253 254 257 258 260 260 260 257 254 252 252 253 252 248 246 246 245 246 249 252 254 253 251 249 246 243 242 239 233 228 226 224 220 218 219 221 222 218 210 205 209 213 210 206 203 205 205 200 200 204 196 108 54 74 60 36 34 37 34 30 28 24 24 27 30 31 29
240 242 244 245 247 250 251 252 253 254 256 256 256 256 255 254 253 254 254 252 250 247 246 247 249 252 254 252 248 245 243 242 243 241 234 225 219 216 215 213 208 203 197 193 193 194 198 206 212 213 211 206 200 196 197 205 213 206 193 64 61 56 30 31 37 35 33 32 27 23 26 30 31 30
238 239 242 244 245 246 247 248 248 248 249 251 252 253 253 253 252 253 253 252 250 248 247 248 250 251 250 247 244 243 241 240 240 235 226 220 215 209 205 203 194 186 182 183 186 187 187 193 205 219 228 220 203 194 195 206 216 217 209 222 23 16 8 20 30 30 30 34 34 28 26 28 31 31
236 236 238 240 241 241 241 241 242 243 244 245 246 248 249 249 249 249 249 250 250 249 249 248 247 246 244 243 241 239 235 235 234 225 216 212 208 201 199 198 192 186 183 183 184 183 183 188 199 205 208 211 206 202 202 207 215 220 230 284 309 321 340 2 17 21 23 26 31 33 31 30 30 31
231 232 233 234 235 235 235 236 238 239 240 240 241 243 244 244 245 246 248 250 252 253 251 248 245 243 240 238 235 231 228 225 222 214 209 207 202 196 195 195 193 191 189 185 183 184 185 188 190 186 184 192 205 214 219 224 226 229 244 270 281 291 305 331 357 10 14 16 17 24 32 35 33 30
226 228 229 230 231 231 231 233 235 237 237 237 237 239 240 241 241 243 245 246 249 252 252 249 246 242 240 237 233 226 220 215 208 203 201 200 198 196 195 195 195 194 192 187 185 186 188 187 184 179 184 199 217 229 233 233 235 241 249 254 262 271 280 290 310 336 358 9 8 13 26 34 34 31
224 225 224 226 228 228 228 232 235 236 236 236 236 236 236 237 238 239 240 242 244 247 249 249 247 244 241 237 231 223 217 210 200 195 194 195 196 196 197 200 202 199 194 191 190 189 189 189 187 184 185 196 224 245 238 230 232 242 249 251 254 258 263 266 270 278 305 346 0 7 20 30 33 31
223 224 224 225 227 226 227 231 234 235 235 236 235 234 233 235 236 237 238 238 238 239 242 245 245 244 244 240 232 225 221 212 199 192 192 192 193 196 199 202 203 198 195 195 195 193 191 191 192 191 187 181 202 250 249 240 239 243 246 249 252 254 255 255 254 255 264 284 321 354 16 28 33 33
220 223 223 224 225 225 227 231 232 233 234 234 233 232 233 234 236 237 236 235 234 234 235 236 235 234 237 238 233 226 222 211 196 190 190 189 191 197 201 200 197 195 196 198 198 198 198 196 196 198 194 185 186 229 247 247 247 249 249 250 251 251 249 248 248 251 255 261 278 312 351 12 23 31
221 223 224 224 224 225 227 230 231 232 232 231 230 230 231 232 234 235 234 235 237 238 238 237 232 222 217 219 220 222 221 210 195 188 189 190 192 196 197 196 193 193 197 200 200 202 202 201 202 205 205 204 208 220 234 245 253 258 258 256 254 251 248 247 250 253 255 258 267 286 308 326 347 9
221 225 226 225 225 226 227 229 230 231 232 231 229 230 231 230 231 233 235 238 241 241 240 238 230 216 210 211 216 223 223 211 198 193 193 192 194 195 195 195 194 194 198 201 201 203 205 207 208 209 213 221 229 233 240 252 259 261 262 263 261 255 252 251 252 254 257 259 262 271 283 287 288 317
221 224 226 225 225 226 227 227 229 231 233 232 229 229 229 229 230 234 239 243 245 243 239 235 227 219 216 213 213 218 219 209 199 198 197 194 195 196 196 195 194 196 200 202 203 206 211 214 214 214 219 228 233 234 241 250 254 258 264 268 266 260 253 250 250 252 256 259 261 266 274 278 273 276
224 225 226 225 225 225 225 225 227 230 232 232 229 227 227 228 231 235 240 245 247 244 240 238 231 224 220 214 208 210 212 206 199 199 199 196 195 196 196 195 195 198 202 207 210 214 218 220 219 219 223 230 233 232 234 240 248 258 266 271 272 268 259 253 251 252 254 257 259 262 269 277 278 278
228 227 227 226 225 222 221 223 226 229 230 230 228 226 225 227 233 236 236 239 242 240 238 239 235 227 222 217 211 208 207 203 200 199 199 198 197 196 196 198 200 203 208 214 218 220 220 221 223 223 226 232 234 232 235 244 254 262 269 275 281 279 269 260 257 256 257 259 260 259 261 266 269 273
234 232 229 227 223 218 218 223 227 229 229 228 225 224 225 227 231 233 234 236 239 238 234 233 232 227 222 215 209 205 204 203 201 200 199 200 199 199 200 203 204 207 212 215 217 217 217 220 224 228 232 238 240 238 241 251 260 265 272 282 289 289 281 272 265 263 265 266 264 260 259 261 262 266
236 231 226 222 215 212 216 223 228 229 229 228 227 227 225 225 226 228 231 236 239 238 231 223 222 222 218 209 203 201 201 202 204 205 204 203 202 203 205 206 206 207 211 213 214 215 218 220 225 230 235 238 238 239 244 252 260 268 279 288 292 293 290 282 275 272 273 274 270 262 257 257 259 262